www.pogodaiklimat.ru

Погода и климат >> Архив погоды >> Россия >> Нижегородская область >> Ветлуга


АРХИВ ПОГОДЫ в Ветлуге

Время (UTC), дата Ветер
(напр.,м/с)
 
Видим.   Явления Облачность Т
(С)
Тd
(С)
f
(%)
Тe
(С)
Тes
(С)
Комфортность P
(гПа)
Po
(гПа)
Тmin
(С)
Tmax
(С)
R
(мм)
R24
(мм)
S
(см)
18 14.09 ЮЗ 2-4
{6}
20 км 4/0
[Ci fib]
+9.9 +6.2 78 +8 +8 1010.1 993.8
21 14.09 ЮЗ 1-3
{5}
20 км 4/3 1000 м
[Sc Ci fib]
+8.0 +5.6 85 +7 +7 1010.2 993.7
00 15.09 З 2-4
{4}
20 км ясно +5.8 +4.6 92 +3 +3 1010.7 994.1
03 15.09 штиль 0
{4}
20 км 4/3 600 м
[Sc Ci fib]
+4.1 +3.4 95 +3 +3 1010.5 993.8 +4.1
06 15.09 ЮЗ 2-5
{5}
20 км 1/0
[Ac trans]
+9.8 +5.1 73 +8 +12 1010.2 993.9
09 15.09 ЮЗ 4-9
{9}
20 км 8/8 600 м
[Cb calv]
+13.3 +3.0 50 +12 +13 1009.6 993.5
12 15.09 ЮЗ 4-9
{11}
20 км 8/6 600 м
[Cb calv Ac trans]
+13.9 +2.1 45 +13 +13 1008.9 992.8
15 15.09 ЮЗ 2-4
{10}
20 км 5/5 600 м
[Cb calv]
+10.2 +2.3 58 +9 +9 1008.3 992.0 +14.2
18 15.09 ЮЗ 1-3
{5}
20 км ясно +5.9 +1.7 74 +5 +5 1007.6 991.1
21 15.09 Ю 1-2
{4}
20 км 6/6 600 м
[Cb calv]
+4.4 +2.6 88 +3 +3 1005.7 989.1
00 16.09 Ю 2-3
{4}
20 км 4/4 600 м
[Cb calv]
+4.6 +3.6 93 +2 +2 1002.5 986.0
03 16.09 Ю 2-5
{5}
20 км слаб. дождь 10/10 300 м
[Frnb Ns]
+6.5 +5.0 90 +4 +4 998.6 982.3 +3.8 0.3
06 16.09 Ю 2-5
{7}
20 км дождь 10/10 300 м
[Frnb Ns]
+7.2 +6.4 95 +5 +5 995.8 979.5
09 16.09 Ю 4-7
{8}
20 км слаб. дождь 10/10 600 м
[Sc]
+9.2 +8.4 95 +6 +6 993.8 977.7
12 16.09 ЮЗ 2-5
{7}
20 км в посл. час ливневой дождь 10/9 600 м
[Cb calv Ac As]
+11.6 +9.4 86 +10 +11 992.8 976.8
15 16.09 ЮЗ 2-4
{6}
20 км 9/4 600 м
[Cb calv Ac As Ci fib]
+10.3 +7.6 83 +9 +9 992.7 976.7 +12.3 5
18 16.09 ЮЗ 2-5
{6}
20 км {ливн. осадки} 9/4 600 м
[Cb calv Ac As Ci fib]
+9.0 +8.0 93 +7 +7 993.2 977.1
21 16.09 ЮЗ 2-6
{7}
20 км 9/9 300 м
[Frnb As op]
+8.0 +7.1 94 +6 +6 993.1 977.0
00 17.09 ЮЗ 3-5
{7}
20 км 10/10 300 м
[Frnb Ns]
+8.5 +7.4 93 +6 +6 992.3 976.2
03 17.09 Ю 2-5
{6}
20 км 10/10 300 м
[Frnb Ns]
+8.9 +7.4 90 +7 +7 991.7 975.6 +7.8 2
06 17.09 ЮЗ 3-6
{8}
20 км 10/10 600 м
[Frnb Ns]
+10.0 +6.5 79 +8 +8 991.6 975.6
09 17.09 ЮЗ 4-7
{9}
20 км {ливн. осадки} 10/8 600 м
[Cb cap Ac As]
+10.6 +7.0 78 +8 +8 991.5 975.5
12 17.09 ЮЗ 2-4
{8}
20 км ливневой дождь 10/8 600 м
[Cb cap Ac As]
+9.3 +7.6 89 +8 +8 992.5 976.4
15 17.09 ЮЗ 2-4
{8}
20 км {ливн. осадки} 10/6 600 м
[Sc diur, vesp Ac As]
+9.4 +7.7 89 +8 +8 992.9 976.8 +11.9 7
18 17.09 ЮЗ 2-3
{5}
20 км {ливн. осадки} 8/6 600 м
[Cb calv Ac As]
+7.3 +6.4 94 +5 +5 993.9 977.7
21 17.09 ЮЗ 2-4
{5}
20 км 10/4 600 м
[Cb calv Ac As]
+7.2 +6.4 95 +5 +5 994.5 978.2
00 18.09 ЮЗ 2-6
{6}
20 км 10/10 600 м
[Sc]
+7.6 +6.7 94 +5 +5 994.9 978.7
03 18.09 ЮЗ 2-4
{6}
20 км слаб. ливневой дождь 10/10 600 м
[Cb calv]
+7.4 +6.5 94 +5 +5 995.9 979.6 +6.8 0.3
06 18.09 ЮЗ 2-4
{7}
20 км {ливн. осадки} 10/8 600 м
[Sc Ac As]
+7.9 +6.1 88 +6 +6 996.8 980.6
09 18.09 ЮЗ 3-7
{7}
20 км 10/6 600 м
[Cb calv Ac As]
+10.0 +5.5 74 +8 +9 997.5 981.4
12 18.09 ЮЗ 2-6
{8}
20 км 8/6 600 м
[Cb calv Ac trans Ci fib]
+11.9 +3.2 55 +11 +12 997.3 981.3
15 18.09 ЮЗ 1-2
{6}
20 км {ливн. осадки} 10/8 600 м
[Cb calv Ac As Ci fib]
+8.9 +5.1 77 +8 +8 997.9 981.7 +12.1 0.0
18 18.09 штиль 0
{2}
20 км {ливн. осадки} ясно +5.7 +4.8 94 +5 +5 998.0 981.6
21 18.09 штиль 0
{1}
20 км 10/5 600 м
[Sc Ac As]
+5.5 +4.8 95 +4 +4 997.3 980.9
00 19.09 штиль 0
{1}
20 км 10/6 600 м
[Sc Ac As]
+5.4 +4.9 97 +4 +4 996.7 980.3
03 19.09 СЗ 1-2
{2}
4000 м дымка 10/10 600 м
[Sc]
+5.7 +5.2 97 +4 +4 997.0 980.6 +4.8
06 19.09 СЗ 2-5
{6}
20 км 10/10 600 м
[Sc diur, vesp]
+7.2 +5.9 91 +5 +5 998.5 982.2
09 19.09 СЗ 2-6
{6}
20 км 8/8 600 м
[Sc diur, vesp]
+10.9 +4.6 65 +10 +11 1000.4 984.3
12 19.09 СЗ 4-8
{11}
20 км слаб. дождь 10/10 600 м
[Cb calv]
+8.4 +5.0 79 +5 +5 1003.8 987.4
15 19.09 СЗ 1-2
{9}
20 км {ливн. осадки} 10/10 600 м
[Cb calv]
+7.2 +3.2 76 +6 +6 1007.3 990.8 +11.5 0.5
18 19.09 З 1-1
{3}
20 км {ливн. осадки} 3/3 1000 м
[Sc Ci fib]
+3.8 +2.6 92 +2 +2 1009.5 992.8
21 19.09 З 1-2
{3}
20 км 10/4 600 м
[Sc Ac As Ci fib]
+2.6 +1.8 94 +1 +1 1010.5 993.7
00 20.09 ЮЗ 1-2
{3}
20 км 10/6 600 м
[Sc Ac As]
+1.7 +1.2 96 -0 -0 1011.7 994.9
03 20.09 штиль 0
{3}
20 км 10/8 600 м
[Sc Ac As Ci fib]
+2.1 +1.6 96 +1 +1 1012.2 995.3 +1.6
06 20.09 С 1
{1}
20 км 10/6 600 м
[Sc Ac As]
+5.3 +2.3 81 +4 +5 1013.0 996.3
09 20.09 СВ 1-2
{3}
20 км 10/8 600 м
[Cb cap Ac As]
+8.3 -0.9 52 +8 +8 1012.6 996.1
12 20.09 В 1-2
{4}
20 км 10/8 600 м
[Sc Ac As]
+8.3 -0.5 54 +8 +8 1012.4 995.9
15 20.09 штиль 0
{3}
20 км 10/8 600 м
[Sc Ac As]
+5.1 -0.2 69 +4 +4 1012.1 995.4 +8.9
18 20.09 штиль 0
{1}
20 км 6/3 600 м
[Sc Ac As Ci fib]
+1.0 +0.2 94 -0 -0 1012.2 995.3
21 20.09 штиль 0
{1}
20 км 8/3 600 м
[Sc Ac As Ci fib]
+0.2 -0.4 96 -1 -1 1011.7 994.7
00 21.09 штиль 0
{1}
20 км 8/3 600 м
[Sc Ac As Ci fib]
-1.1 -1.4 98 -2 -2 1010.9 993.9
03 21.09 Ю 1-1
{1}
20 км 6/3 600 м
[Sc Ac As Ci fib]
-1.5 -1.8 98 -4 -4 1010.7 993.6 -1.8
06 21.09 З 1-2
{3}
20 км 10/3 600 м
[Sc Ac As Ci fib]
+4.4 +1.1 79 +3 +4 1010.4 993.7 -2.2
09 21.09 З 2-6
{5}
20 км 10/8 600 м
[Cb calv Ac As]
+8.0 -0.7 54 +7 +7 1009.6 993.1
12 21.09 З 3-7
{7}
20 км 10/8 600 м
[Cb calv Ac As]
+8.2 -2.7 46 +6 +6 1008.7 992.3

 

Местоположение метеостанции Ветлуга (Нижегородская область, Россия): широта 57.85 долгота 45.77 высота над уровнем моря 136 м.

В архиве по умолчанию представлена погода в Ветлуге за последнюю неделю. Архивные данные за месяц целиком и за предыдущие месяцы, начиная с января 2011 года, Вы можете получить, выбрав интересующий диапазон дат из раскрывающегося списка и нажав кнопку "Ввод!".


*Определитесь, кто Вы:
робот инопланетянин человек

Внимание! Время в таблицах - всемирное. Для получения местного времени необходимо прибавить поправку, которая равна 3 ч.

Смотрите также архив погоды в соседних городах и на ближайших метеорологических станциях:

Погода в Шахунье (Нижегородская область, Россия) (55 км)
Погода в Шарье (Костромская область, Россия) (60 км)
Погода в Мантурово (Костромская область, Россия) (79 км)
Погода в Красных Баках (Нижегородская область, Россия) (88 км)
Погода в Шабалино (Кировская область, Россия) (94 км)
Погода в Пыщуге (Костромская область, Россия) (115 км)
Погода в Воскресенском (Нижегородская область, Россия) (117 км)
Погода в Макарьеве (Костромская область, Россия) (118 км)
Погода в Вохме (Костромская область, Россия) (134 км)
Погода в Санчурске (Кировская область, Россия) (134 км)

Пояснения к столбцам:

Ветер - указаны скорость ветра в м/с - средняя за 10 мин, порывы в срок и между сроками (в фигурных скобках) и направление, откуда дует ветер: С - северный, СВ - северо-восточный, В - восточный, ЮВ - юго-восточный, Ю - южный, ЮЗ - юго-западный, З - западный, СЗ - северо-западный.
Видимость - горизонтальная дальность видимости в метрах или километрах. При видимости от 1 до 10 км при отсутствии осадков обычно наблюдается дымка, при ухудшении видимости до 1 км и менее - туман. В сухую погоду видимость может ухудшаться дымом, пылью или мглою.
Явления - указаны атмосферные явления, наблюдавшиеся в срок или в последний час перед сроком; фигурными скобками обозначены явления, наблюдавшиеся между сроками (за 1-3 часа до срока); квадратными скобками обозначены град или гололедные отложения с указанием их диаметра в мм.
Облачность - указаны через наклонную черту общая и нижняя облачность в баллах и высота нижней границы облаков в метрах; квадратными скобками обозначены формы облаков: Ci - перистые, Cs - перисто-слоистые, Cc - перисто-кучевые, Ac - высококучевые, As - высокослоистые, Sc - слоисто-кучевые, Ns - слоисто-дождевые, Cu - кучевые, Cb - кучево-дождевые. Подробнее классификацию облаков см. в Атласе облаков (PDF).
T - Температура воздуха - температура, измеренная на высоте 2 м над землей.
Td - Температура точки росы - температура, при понижении до которой содержащийся в воздухе водяной пар достигнет насыщения.
f - Относительная влажность воздуха - влажноcть воздуха, измеренная на высоте 2 м над землей.
Te - Эффективная температура - температура, которую ощущает одетый по сезону человек в тени. Характеристика душности погоды. При расчете учитывается влияние влажности воздуха и скорости ветра на теплоощущения человека.
Tes - Эффективная температура на солнце - температура, которую ощущает человек, с поправкой на солнечный нагрев. Характеристика знойности погоды. Зависит от высоты солнца над горизонтом, облачности и скорости ветра. Ночью, в пасмурную погоду, а также при ветре 12 м/с и более поправка равна нулю.
P - Атмосферное давление - приведенное к уровню моря атмосферное давление.
Po - Атмосферное давление - измеренное на уровне метеостанции атмосферное давление.
Tmin - Минимальная температура - минимум температуры воздуха на высоте 2 м над землей.
Tmax - Максимальная температура - максимум температуры воздуха на высоте 2 м над землей.
R - Количество осадков - Количество выпавших осадков за период времени, мм. При наведении курсора мыши на число - период времени, за который выпало указанное количество осадков.
R24 - Количество осадков - Количество выпавших осадков за 24 часа, мм.
S - Снежный покров - Высота снежного покрова, см. При наведении курсора мыши на число - состояние снежного покрова и степень покрытия местности в баллах.